Location: Unspecified
(22.6800°N, 112.2000°E)
Time: 20:22:16
(UTC+08:00)

Vanguard 1 - Visible Passes

Search period start: 02 August 2021 00:00
Search period end: 12 August 2021 00:00
Orbit: 652 x 3831 km, 34.2° (Epoch: 01 August)

Date Brightness Start Highest point End Pass type
(mag) Time Alt. Az. Time Alt. Az. Time Alt. Az.
02 Aug 13.9 19:41:45 10° W 19:53:52 23° SW 20:09:32 10° S visible
03 Aug 14.1 20:06:09 10° WSW 20:15:56 16° SW 20:27:37 10° S visible
04 Aug 14.2 20:35:26 10° SW 20:38:19 10° SSW 20:41:20 10° SSW visible
07 Aug 12.4 05:00:05 10° S 05:03:43 13° SSE 05:06:41 10° SE visible
07 Aug 14.1 19:10:26 10° SW 19:16:56 13° SSW 19:24:37 10° S visible
08 Aug 11.9 05:19:01 10° SSW 05:25:06 21° SSE 05:29:26 10° ESE visible
09 Aug 11.4 05:39:00 10° SSW 05:46:22 32° SSE 05:51:11 10° E visible
10 Aug 12.8 03:42:23 12° S 03:45:10 13° SSE 03:48:49 10° SE visible
11 Aug 12.4 04:02:20 15° S 04:06:46 20° SSE 04:12:04 10° ESE visible
